Wetterdaten: Donnerstag, 13.02.2014
Datum Zeit Temperatur Luftfeuchte Luftdruck Regen Wind Richtung Richtung Taupunkt Windchill Windben
13.02.2014 00:00 -4,7 C 82 % 1008,5 hPa 0,0 l/m 2,1 km/h (1 Bft) N-NO 22 -7,3 C -5,3 C 2,7 km/h (1 Bft)
13.02.2014 00:05 -4,7 C 82 % 1008,4 hPa 0,0 l/m 1,8 km/h (1 Bft) NW 315 -7,3 C -5,1 C 0,0 km/h (0 Bft)
13.02.2014 00:10 -5,2 C 82 % 1008,4 hPa 0,0 l/m 0,8 km/h (0 Bft) W 270 -7,8 C -5,2 C 0,0 km/h (0 Bft)
13.02.2014 00:15 -5,2 C 82 % 1008,4 hPa 0,0 l/m 0,5 km/h (0 Bft) O-NO 67 -7,8 C -5,4 C 3,7 km/h (1 Bft)
13.02.2014 00:20 -4,3 C 83 % 1008,4 hPa 0,0 l/m 1,1 km/h (1 Bft) NO 45 -6,7 C -5,4 C 4,5 km/h (1 Bft)
13.02.2014 00:25 -4,3 C 83 % 1008,2 hPa 0,0 l/m 1,1 km/h (1 Bft) NO 45 -6,7 C -5,2 C 0,0 km/h (0 Bft)
13.02.2014 00:30 -4,3 C 82 % 1008,2 hPa 0,0 l/m 0,3 km/h (0 Bft) NO 45 -6,9 C -5,2 C 0,0 km/h (0 Bft)
13.02.2014 00:35 -4,5 C 82 % 1008,2 hPa 0,0 l/m 0,2 km/h (0 Bft) S-SO 157 -7,1 C -5,1 C 0,0 km/h (0 Bft)
13.02.2014 00:40 -4,2 C 82 % 1008,2 hPa 0,0 l/m 0,2 km/h (0 Bft) S-SO 157 -6,8 C -5,0 C 0,0 km/h (0 Bft)
13.02.2014 00:45 -4,2 C 82 % 1008,0 hPa 0,0 l/m 0,3 km/h (0 Bft) O 90 -6,8 C -5,0 C 2,4 km/h (1 Bft)
13.02.2014 00:50 -4,2 C 81 % 1008,0 hPa 0,0 l/m 0,8 km/h (0 Bft) O-SO 112 -7,0 C -4,9 C 4,8 km/h (1 Bft)
13.02.2014 00:55 -4,5 C 81 % 1008,0 hPa 0,0 l/m 0,8 km/h (0 Bft) S 180 -7,3 C -4,9 C 1,9 km/h (1 Bft)
13.02.2014 01:00 -3,9 C 80 % 1008,0 hPa 0,0 l/m 1,3 km/h (1 Bft) O 90 -6,8 C -5,0 C 5,5 km/h (1 Bft)
13.02.2014 01:05 -3,6 C 80 % 1007,8 hPa 0,0 l/m 1,6 km/h (1 Bft) W-SW 247 -6,5 C -4,9 C 3,4 km/h (1 Bft)
13.02.2014 01:10 -3,6 C 79 % 1007,8 hPa 0,0 l/m 0,8 km/h (0 Bft) NO 45 -6,7 C -4,7 C 0,0 km/h (0 Bft)
13.02.2014 01:15 -3,7 C 78 % 1007,8 hPa 0,0 l/m 0,5 km/h (0 Bft) SO 135 -7,0 C -4,6 C 0,0 km/h (0 Bft)
13.02.2014 01:20 -3,9 C 77 % 1007,8 hPa 0,0 l/m 0,3 km/h (0 Bft) W-SW 247 -7,3 C -4,6 C 3,5 km/h (1 Bft)
13.02.2014 01:25 -3,9 C 77 % 1007,7 hPa 0,0 l/m 0,5 km/h (0 Bft) NO 45 -7,3 C -4,6 C 2,6 km/h (1 Bft)
13.02.2014 01:30 -3,0 C 76 % 1007,7 hPa 0,0 l/m 2,1 km/h (1 Bft) O-NO 67 -6,6 C -4,1 C 7,4 km/h (2 Bft)
13.02.2014 01:35 -2,6 C 75 % 1007,7 hPa 0,0 l/m 2,3 km/h (1 Bft) O 90 -6,4 C -3,8 C 2,7 km/h (1 Bft)
13.02.2014 01:40 -2,0 C 74 % 1007,7 hPa 0,0 l/m 2,1 km/h (1 Bft) W-SW 247 -6,0 C -3,2 C 4,7 km/h (1 Bft)
13.02.2014 01:45 -2,0 C 73 % 1007,4 hPa 0,0 l/m 2,7 km/h (1 Bft) W-SW 247 -6,2 C -3,2 C 6,9 km/h (2 Bft)
13.02.2014 01:50 -1,8 C 71 % 1007,4 hPa 0,0 l/m 2,4 km/h (1 Bft) S-SW 202 -6,3 C -2,3 C 2,4 km/h (1 Bft)
13.02.2014 01:55 -1,3 C 69 % 1007,4 hPa 0,0 l/m 2,4 km/h (1 Bft) NO 45 -6,2 C -1,9 C 4,8 km/h (1 Bft)
13.02.2014 02:00 -0,9 C 66 % 1007,4 hPa 0,0 l/m 2,3 km/h (1 Bft) W-SW 247 -6,4 C -1,3 C 3,7 km/h (1 Bft)
13.02.2014 02:05 -0,9 C 63 % 1007,2 hPa 0,0 l/m 1,4 km/h (1 Bft) W 270 -7,0 C -1,2 C 1,9 km/h (1 Bft)
13.02.2014 02:10 -0,9 C 63 % 1007,2 hPa 0,0 l/m 1,9 km/h (1 Bft) W-SW 247 -7,0 C -0,8 C 6,0 km/h (2 Bft)
13.02.2014 02:15 -0,6 C 63 % 1007,2 hPa 0,0 l/m 2,6 km/h (1 Bft) S-SW 202 -6,8 C -0,6 C 2,1 km/h (1 Bft)
13.02.2014 02:20 -0,5 C 63 % 1007,2 hPa 0,0 l/m 2,1 km/h (1 Bft) SW 225 -6,7 C -0,2 C 4,0 km/h (1 Bft)
13.02.2014 02:25 -0,2 C 60 % 1007,2 hPa 0,0 l/m 1,9 km/h (1 Bft) S 180 -7,0 C 0,0 C 0,0 km/h (0 Bft)
13.02.2014 02:30 0,0 C 60 % 1007,2 hPa 0,0 l/m 1,3 km/h (1 Bft) W-SW 247 -6,8 C 0,1 C 0,0 km/h (0 Bft)
13.02.2014 02:35 0,0 C 59 % 1007,2 hPa 0,0 l/m 1,1 km/h (1 Bft) W 270 -7,0 C 0,2 C 5,0 km/h (1 Bft)
13.02.2014 02:40 -0,2 C 59 % 1007,2 hPa 0,0 l/m 1,9 km/h (1 Bft) W-SW 247 -7,2 C 0,3 C 4,7 km/h (1 Bft)
13.02.2014 02:45 0,3 C 58 % 1007,3 hPa 0,0 l/m 2,1 km/h (1 Bft) NO 45 -7,0 C 0,4 C 1,9 km/h (1 Bft)
13.02.2014 02:50 0,4 C 58 % 1007,3 hPa 0,0 l/m 1,1 km/h (1 Bft) N-NW 337 -6,9 C 0,6 C 0,0 km/h (0 Bft)
13.02.2014 02:55 0,3 C 57 % 1007,3 hPa 0,0 l/m 1,8 km/h (1 Bft) S-SW 202 -7,2 C 0,7 C 10,3 km/h (2 Bft)
13.02.2014 03:00 1,1 C 52 % 1007,3 hPa 0,0 l/m 5,5 km/h (1 Bft) O-SO 112 -7,6 C -0,6 C 15,1 km/h (3 Bft)
13.02.2014 03:05 1,8 C 48 % 1008,0 hPa 0,0 l/m 7,1 km/h (2 Bft) O-SO 112 -8,0 C -1,4 C 7,6 km/h (2 Bft)
13.02.2014 03:10 2,2 C 46 % 1008,0 hPa 0,0 l/m 5,3 km/h (1 Bft) O-SO 112 -8,2 C 0,8 C 6,8 km/h (2 Bft)
13.02.2014 03:15 2,0 C 46 % 1008,0 hPa 0,0 l/m 5,3 km/h (1 Bft) SO 135 -8,4 C 1,0 C 6,9 km/h (2 Bft)
13.02.2014 03:20 2,3 C 44 % 1008,0 hPa 0,0 l/m 6,6 km/h (2 Bft) O-NO 67 -8,7 C 0,7 C 8,2 km/h (2 Bft)
13.02.2014 03:25 2,2 C 45 % 1007,5 hPa 0,0 l/m 6,6 km/h (2 Bft) NO 45 -8,5 C 0,9 C 4,8 km/h (1 Bft)
13.02.2014 03:30 1,5 C 48 % 1007,5 hPa 0,0 l/m 4,8 km/h (1 Bft) SO 135 -8,3 C 1,4 C 0,0 km/h (0 Bft)
13.02.2014 03:35 1,6 C 46 % 1007,5 hPa 0,0 l/m 4,0 km/h (1 Bft) NO 45 -8,7 C 1,4 C 4,3 km/h (1 Bft)
13.02.2014 03:40 1,5 C 49 % 1007,5 hPa 0,0 l/m 2,9 km/h (1 Bft) SO 135 -8,0 C 2,1 C 2,9 km/h (1 Bft)
13.02.2014 03:45 1,5 C 51 % 1007,3 hPa 0,0 l/m 2,1 km/h (1 Bft) S 180 -7,5 C 2,2 C 0,0 km/h (0 Bft)
13.02.2014 03:50 1,2 C 51 % 1007,3 hPa 0,0 l/m 1,0 km/h (0 Bft) NO 45 -7,8 C 2,0 C 3,2 km/h (1 Bft)
13.02.2014 03:55 1,1 C 53 % 1007,3 hPa 0,0 l/m 2,7 km/h (1 Bft) S 180 -7,4 C 1,7 C 9,8 km/h (2 Bft)
13.02.2014 04:00 1,6 C 49 % 1007,3 hPa 0,0 l/m 6,9 km/h (2 Bft) O-SO 112 -7,9 C -0,8 C 17,5 km/h (3 Bft)
13.02.2014 04:05 2,1 C 46 % 1008,6 hPa 0,0 l/m 7,9 km/h (2 Bft) O-SO 112 -8,3 C -1,9 C 7,4 km/h (2 Bft)
13.02.2014 04:10 2,6 C 45 % 1008,6 hPa 0,0 l/m 7,7 km/h (2 Bft) S-SO 157 -8,1 C -1,0 C 19,2 km/h (3 Bft)
13.02.2014 04:15 2,8 C 46 % 1008,6 hPa 0,0 l/m 9,7 km/h (2 Bft) S-SO 157 -7,6 C -2,5 C 17,4 km/h (3 Bft)
13.02.2014 04:20 3,0 C 47 % 1008,6 hPa 0,0 l/m 12,9 km/h (3 Bft) S 180 -7,2 C -4,9 C 24,8 km/h (4 Bft)
13.02.2014 04:24 2,9 C 49 % 1008,7 hPa 0,0 l/m 12,1 km/h (2 Bft) S 180 -6,7 C -3,9 C 11,3 km/h (2 Bft)
13.02.2014 04:25 2,9 C 49 % 1008,7 hPa 0,0 l/m 12,1 km/h (2 Bft) S 180 -6,7 C -3,9 C 11,3 km/h (2 Bft)
13.02.2014 04:30 3,1 C 49 % 1008,7 hPa 0,0 l/m 11,9 km/h (2 Bft) S-SW 202 -6,6 C -3,7 C 27,8 km/h (4 Bft)
13.02.2014 04:35 3,2 C 50 % 1008,7 hPa 0,0 l/m 11,7 km/h (2 Bft) S 180 -6,2 C -3,4 C 14,3 km/h (3 Bft)
13.02.2014 04:40 3,2 C 50 % 1008,7 hPa 0,0 l/m 11,4 km/h (2 Bft) S 180 -6,2 C -3,1 C 20,8 km/h (4 Bft)
13.02.2014 04:45 3,2 C 50 % 1008,9 hPa 0,0 l/m 11,1 km/h (2 Bft) S 180 -6,2 C -2,9 C 16,3 km/h (3 Bft)
13.02.2014 04:50 3,2 C 50 % 1008,9 hPa 0,0 l/m 12,2 km/h (2 Bft) S-SO 157 -6,2 C -3,6 C 9,5 km/h (2 Bft)
13.02.2014 04:55 3,3 C 49 % 1008,9 hPa 0,0 l/m 12,6 km/h (3 Bft) S-SO 157 -6,4 C -3,9 C 20,4 km/h (4 Bft)
13.02.2014 05:00 3,4 C 50 % 1008,9 hPa 0,0 l/m 11,7 km/h (2 Bft) SO 135 -6,0 C -3,2 C 16,7 km/h (3 Bft)
13.02.2014 05:05 3,4 C 50 % 1009,1 hPa 0,0 l/m 11,9 km/h (2 Bft) S-SO 157 -6,0 C -3,2 C 11,7 km/h (2 Bft)
13.02.2014 05:10 3,3 C 50 % 1009,1 hPa 0,0 l/m 10,5 km/h (2 Bft) SO 135 -6,1 C -1,8 C 11,6 km/h (2 Bft)
13.02.2014 05:15 3,3 C 51 % 1009,1 hPa 0,0 l/m 8,9 km/h (2 Bft) S-SO 157 -5,8 C -0,1 C 9,0 km/h (2 Bft)
13.02.2014 05:20 3,1 C 52 % 1009,1 hPa 0,0 l/m 6,9 km/h (2 Bft) S 180 -5,8 C 2,0 C 6,4 km/h (2 Bft)
13.02.2014 05:25 3,0 C 53 % 1008,7 hPa 0,0 l/m 5,6 km/h (1 Bft) S 180 -5,6 C 2,8 C 7,2 km/h (2 Bft)
13.02.2014 05:30 3,0 C 53 % 1008,7 hPa 0,0 l/m 4,2 km/h (1 Bft) S-SO 157 -5,6 C 3,3 C 3,4 km/h (1 Bft)
13.02.2014 05:35 2,9 C 55 % 1008,7 hPa 0,0 l/m 4,2 km/h (1 Bft) NO 45 -5,2 C 3,2 C 3,7 km/h (1 Bft)
13.02.2014 05:40 2,9 C 55 % 1008,7 hPa 0,0 l/m 3,2 km/h (1 Bft) NO 45 -5,2 C 3,6 C 4,3 km/h (1 Bft)
13.02.2014 05:45 2,9 C 55 % 1008,6 hPa 0,0 l/m 3,4 km/h (1 Bft) O-SO 112 -5,2 C 3,4 C 2,4 km/h (1 Bft)
13.02.2014 05:50 3,0 C 53 % 1008,6 hPa 0,0 l/m 3,2 km/h (1 Bft) NO 45 -5,6 C 3,5 C 4,5 km/h (1 Bft)
13.02.2014 05:55 3,1 C 52 % 1008,6 hPa 0,0 l/m 3,4 km/h (1 Bft) NO 45 -5,8 C 3,4 C 1,6 km/h (1 Bft)
13.02.2014 06:00 2,9 C 54 % 1008,6 hPa 0,0 l/m 4,0 km/h (1 Bft) O 90 -5,5 C 3,1 C 7,6 km/h (2 Bft)
13.02.2014 06:05 2,9 C 54 % 1008,6 hPa 0,0 l/m 3,5 km/h (1 Bft) O 90 -5,5 C 3,3 C 2,9 km/h (1 Bft)
13.02.2014 06:10 2,7 C 54 % 1008,6 hPa 0,0 l/m 4,0 km/h (1 Bft) S 180 -5,7 C 3,1 C 2,6 km/h (1 Bft)
13.02.2014 06:15 2,5 C 55 % 1008,6 hPa 0,0 l/m 2,9 km/h (1 Bft) S-SO 157 -5,6 C 3,4 C 2,7 km/h (1 Bft)
13.02.2014 06:20 2,7 C 54 % 1008,6 hPa 0,0 l/m 3,1 km/h (1 Bft) O-NO 67 -5,7 C 3,0 C 5,8 km/h (2 Bft)
13.02.2014 06:25 2,8 C 52 % 1008,6 hPa 0,0 l/m 4,2 km/h (1 Bft) O 90 -6,1 C 2,4 C 6,8 km/h (2 Bft)
13.02.2014 06:30 2,7 C 52 % 1008,6 hPa 0,0 l/m 5,1 km/h (1 Bft) O 90 -6,2 C 1,9 C 6,6 km/h (2 Bft)
13.02.2014 06:35 2,5 C 52 % 1008,6 hPa 0,0 l/m 5,5 km/h (1 Bft) O-NO 67 -6,3 C 1,5 C 6,0 km/h (2 Bft)
13.02.2014 06:40 1,6 C 52 % 1008,6 hPa 0,0 l/m 4,7 km/h (1 Bft) S-SW 202 -7,2 C 1,1 C 2,3 km/h (1 Bft)
13.02.2014 06:45 1,1 C 55 % 1008,4 hPa 0,0 l/m 3,4 km/h (1 Bft) NO 45 -6,9 C 1,1 C 2,9 km/h (1 Bft)
13.02.2014 06:50 1,0 C 55 % 1008,4 hPa 0,0 l/m 2,9 km/h (1 Bft) O-NO 67 -7,0 C 0,4 C 7,2 km/h (2 Bft)
13.02.2014 06:55 1,3 C 55 % 1008,4 hPa 0,0 l/m 4,5 km/h (1 Bft) O-SO 112 -6,7 C -0,6 C 7,4 km/h (2 Bft)
13.02.2014 07:00 1,0 C 54 % 1008,4 hPa 0,0 l/m 5,5 km/h (1 Bft) NO 45 -7,2 C -1,1 C 3,4 km/h (1 Bft)
13.02.2014 07:05 0,7 C 54 % 1007,9 hPa 0,0 l/m 4,2 km/h (1 Bft) O 90 -7,5 C -0,6 C 3,7 km/h (1 Bft)
13.02.2014 07:10 0,9 C 54 % 1007,9 hPa 0,0 l/m 4,2 km/h (1 Bft) NO 45 -7,3 C -0,6 C 5,3 km/h (1 Bft)
13.02.2014 07:15 0,4 C 55 % 1007,9 hPa 0,0 l/m 4,2 km/h (1 Bft) W-SW 247 -7,6 C -0,9 C 3,4 km/h (1 Bft)
13.02.2014 07:20 -0,3 C 58 % 1007,9 hPa 0,0 l/m 2,7 km/h (1 Bft) NO 45 -7,5 C -0,7 C 3,9 km/h (1 Bft)
13.02.2014 07:25 -0,6 C 58 % 1007,5 hPa 0,0 l/m 2,1 km/h (1 Bft) S-SW 202 -7,8 C -0,6 C 0,0 km/h (0 Bft)
13.02.2014 07:30 -0,6 C 59 % 1007,5 hPa 0,0 l/m 1,8 km/h (1 Bft) N-NO 22 -7,6 C -1,0 C 0,0 km/h (0 Bft)
13.02.2014 07:35 -1,0 C 58 % 1007,5 hPa 0,0 l/m 1,4 km/h (1 Bft) N-NO 22 -8,2 C -1,1 C 0,0 km/h (0 Bft)
13.02.2014 07:40 -0,5 C 57 % 1007,5 hPa 0,0 l/m 1,4 km/h (1 Bft) W 270 -7,9 C -0,6 C 3,4 km/h (1 Bft)
13.02.2014 07:45 -0,6 C 57 % 1006,4 hPa 0,0 l/m 1,6 km/h (1 Bft) W-SW 247 -8,0 C -0,5 C 0,0 km/h (0 Bft)
13.02.2014 07:50 -1,1 C 58 % 1006,4 hPa 0,0 l/m 1,1 km/h (1 Bft) N-NW 337 -8,3 C -0,9 C 0,0 km/h (0 Bft)
13.02.2014 07:55 -0,7 C 58 % 1006,4 hPa 0,0 l/m 1,8 km/h (1 Bft) O-SO 112 -7,9 C -1,1 C 3,2 km/h (1 Bft)
13.02.2014 08:00 -0,4 C 58 % 1006,4 hPa 0,0 l/m 1,9 km/h (1 Bft) NO 45 -7,6 C -0,9 C 4,5 km/h (1 Bft)
13.02.2014 08:05 0,1 C 57 % 1006,2 hPa 0,0 l/m 2,4 km/h (1 Bft) O-NO 67 -7,4 C -0,8 C 3,2 km/h (1 Bft)
13.02.2014 08:10 0,4 C 55 % 1006,2 hPa 0,0 l/m 2,6 km/h (1 Bft) O-SO 112 -7,6 C -0,7 C 1,6 km/h (1 Bft)
13.02.2014 08:15 -0,4 C 56 % 1006,2 hPa 0,0 l/m 1,4 km/h (1 Bft) O 90 -8,1 C -0,6 C 2,4 km/h (1 Bft)
13.02.2014 08:20 0,0 C 56 % 1006,2 hPa 0,0 l/m 1,3 km/h (1 Bft) O-NO 67 -7,7 C -0,7 C 0,0 km/h (0 Bft)
13.02.2014 08:25 -0,6 C 57 % 1006,2 hPa 0,0 l/m 1,3 km/h (1 Bft) N-NO 22 -8,0 C -0,7 C 0,0 km/h (0 Bft)
13.02.2014 08:30 -1,0 C 58 % 1006,2 hPa 0,0 l/m 0,6 km/h (0 Bft) SO 135 -8,2 C -0,8 C 2,1 km/h (1 Bft)
13.02.2014 08:35 -0,9 C 58 % 1006,2 hPa 0,0 l/m 0,8 km/h (0 Bft) S 180 -8,1 C -0,7 C 0,0 km/h (0 Bft)
13.02.2014 08:40 -0,3 C 58 % 1006,2 hPa 0,0 l/m 1,8 km/h (1 Bft) O-NO 67 -7,5 C -0,7 C 0,0 km/h (0 Bft)
13.02.2014 08:45 -0,5 C 58 % 1006,2 hPa 0,0 l/m 1,3 km/h (1 Bft) NO 45 -7,7 C -0,6 C 0,0 km/h (0 Bft)
13.02.2014 08:50 -0,7 C 58 % 1006,2 hPa 0,0 l/m 0,3 km/h (0 Bft) O-NO 67 -7,9 C -0,7 C 0,0 km/h (0 Bft)
13.02.2014 08:55 -0,7 C 58 % 1006,2 hPa 0,0 l/m 0,2 km/h (0 Bft) NO 45 -7,9 C -0,7 C 0,0 km/h (0 Bft)
13.02.2014 09:00 -0,1 C 58 % 1006,2 hPa 0,0 l/m 0,6 km/h (0 Bft) O 90 -7,3 C -0,6 C 1,6 km/h (1 Bft)
13.02.2014 09:05 0,6 C 58 % 1005,9 hPa 0,0 l/m 1,3 km/h (1 Bft) NO 45 -6,7 C -0,4 C 0,0 km/h (0 Bft)
13.02.2014 09:10 0,3 C 58 % 1005,9 hPa 0,0 l/m 1,1 km/h (1 Bft) N-NO 22 -7,0 C 0,2 C 0,0 km/h (0 Bft)
13.02.2014 09:15 1,1 C 57 % 1005,9 hPa 0,0 l/m 1,8 km/h (1 Bft) N-NO 22 -6,4 C 0,4 C 3,9 km/h (1 Bft)
13.02.2014 09:20 1,0 C 57 % 1005,9 hPa 0,0 l/m 2,4 km/h (1 Bft) N-NO 22 -6,5 C 1,4 C 1,6 km/h (1 Bft)
13.02.2014 09:24 1,3 C 56 % 1005,7 hPa 0,0 l/m 1,8 km/h (1 Bft) NO 45 -6,5 C 2,2 C 0,0 km/h (0 Bft)
13.02.2014 09:25 1,3 C 56 % 1005,7 hPa 0,0 l/m 1,8 km/h (1 Bft) NO 45 -6,5 C 2,2 C 0,0 km/h (0 Bft)
13.02.2014 09:30 1,6 C 56 % 1005,7 hPa 0,0 l/m 0,8 km/h (0 Bft) N-NO 22 -6,2 C 3,1 C 0,0 km/h (0 Bft)
13.02.2014 09:35 2,1 C 55 % 1005,7 hPa 0,0 l/m 1,8 km/h (1 Bft) O 90 -6,0 C 3,1 C 2,4 km/h (1 Bft)
13.02.2014 09:40 2,5 C 53 % 1005,7 hPa 0,0 l/m 2,7 km/h (1 Bft) N 360 -6,1 C 3,4 C 3,5 km/h (1 Bft)
13.02.2014 09:45 2,7 C 54 % 1004,8 hPa 0,0 l/m 3,1 km/h (1 Bft) N-NW 337 -5,7 C 4,1 C 2,3 km/h (1 Bft)
13.02.2014 09:50 3,3 C 53 % 1004,8 hPa 0,0 l/m 1,9 km/h (1 Bft) N 360 -5,3 C 5,1 C 0,0 km/h (0 Bft)
13.02.2014 09:55 3,5 C 53 % 1004,8 hPa 0,0 l/m 0,6 km/h (0 Bft) N-NW 337 -5,2 C 5,6 C 0,0 km/h (0 Bft)
13.02.2014 10:00 3,6 C 54 % 1004,8 hPa 0,0 l/m 0,0 km/h (0 Bft) N-NO 22 -4,8 C 6,3 C 0,0 km/h (0 Bft)
13.02.2014 10:05 3,6 C 53 % 1004,2 hPa 0,0 l/m 0,2 km/h (0 Bft) N 360 -5,1 C 7,0 C 3,1 km/h (1 Bft)
13.02.2014 10:10 3,9 C 52 % 1004,2 hPa 0,0 l/m 1,3 km/h (1 Bft) N-NW 337 -5,0 C 8,1 C 3,1 km/h (1 Bft)
13.02.2014 10:15 3,9 C 53 % 1004,2 hPa 0,0 l/m 2,4 km/h (1 Bft) NW 315 -4,8 C 9,0 C 3,7 km/h (1 Bft)
13.02.2014 10:20 4,4 C 53 % 1004,2 hPa 0,0 l/m 2,6 km/h (1 Bft) N-NW 337 -4,3 C 10,5 C 0,0 km/h (0 Bft)
13.02.2014 10:25 4,5 C 52 % 1003,9 hPa 0,0 l/m 1,8 km/h (1 Bft) N-NW 337 -4,5 C 11,9 C 2,7 km/h (1 Bft)
13.02.2014 10:30 4,7 C 52 % 1003,9 hPa 0,0 l/m 2,6 km/h (1 Bft) N-NO 22 -4,3 C 13,0 C 4,3 km/h (1 Bft)
13.02.2014 10:35 5,3 C 49 % 1003,9 hPa 0,0 l/m 4,7 km/h (1 Bft) N 360 -4,5 C 13,1 C 9,2 km/h (2 Bft)
13.02.2014 10:40 5,9 C 46 % 1003,9 hPa 0,0 l/m 5,6 km/h (1 Bft) N 360 -4,8 C 12,8 C 6,8 km/h (2 Bft)
13.02.2014 10:45 6,1 C 43 % 1003,4 hPa 0,0 l/m 6,3 km/h (2 Bft) N 360 -5,5 C 12,8 C 10,5 km/h (2 Bft)
13.02.2014 10:50 6,9 C 42 % 1003,4 hPa 0,0 l/m 6,9 km/h (2 Bft) N 360 -5,1 C 12,3 C 9,3 km/h (2 Bft)
13.02.2014 10:55 7,3 C 40 % 1003,4 hPa 0,0 l/m 7,7 km/h (2 Bft) N-NW 337 -5,4 C 11,6 C 8,4 km/h (2 Bft)
13.02.2014 11:00 8,0 C 38 % 1003,4 hPa 0,0 l/m 8,2 km/h (2 Bft) N-NW 337 -5,4 C 11,0 C 7,6 km/h (2 Bft)
13.02.2014 11:05 8,4 C 38 % 1002,8 hPa 0,0 l/m 8,0 km/h (2 Bft) N 360 -5,1 C 11,2 C 7,6 km/h (2 Bft)
13.02.2014 11:10 8,4 C 38 % 1002,8 hPa 0,0 l/m 7,2 km/h (2 Bft) N-NW 337 -5,1 C 11,2 C 11,1 km/h (2 Bft)
13.02.2014 11:15 8,3 C 39 % 1002,8 hPa 0,0 l/m 6,9 km/h (2 Bft) N 360 -4,8 C 11,0 C 10,3 km/h (2 Bft)
13.02.2014 11:20 8,4 C 40 % 1002,8 hPa 0,0 l/m 6,9 km/h (2 Bft) N 360 -4,4 C 10,4 C 8,2 km/h (2 Bft)
13.02.2014 11:25 8,6 C 39 % 1002,8 hPa 0,0 l/m 6,1 km/h (2 Bft) N 360 -4,6 C 10,6 C 6,6 km/h (2 Bft)
13.02.2014 11:30 8,8 C 37 % 1002,8 hPa 0,0 l/m 6,6 km/h (2 Bft) N-NW 337 -5,1 C 10,2 C 10,3 km/h (2 Bft)
13.02.2014 11:35 8,9 C 36 % 1002,8 hPa 0,0 l/m 7,6 km/h (2 Bft) N-NO 22 -5,3 C 9,1 C 6,4 km/h (2 Bft)
13.02.2014 11:40 8,9 C 35 % 1002,8 hPa 0,0 l/m 8,2 km/h (2 Bft) N-NW 337 -5,7 C 8,4 C 8,0 km/h (2 Bft)
13.02.2014 11:45 8,8 C 37 % 1002,3 hPa 0,0 l/m 8,0 km/h (2 Bft) N 360 -5,1 C 8,4 C 7,7 km/h (2 Bft)
13.02.2014 11:50 8,9 C 36 % 1002,3 hPa 0,0 l/m 8,2 km/h (2 Bft) N-NO 22 -5,3 C 8,1 C 9,8 km/h (2 Bft)
13.02.2014 11:55 9,0 C 36 % 1002,3 hPa 0,0 l/m 7,7 km/h (2 Bft) N 360 -5,3 C 8,5 C 7,6 km/h (2 Bft)
13.02.2014 12:00 8,7 C 40 % 1002,3 hPa 0,0 l/m 6,6 km/h (2 Bft) N-NO 22 -4,1 C 9,6 C 6,4 km/h (2 Bft)
13.02.2014 12:05 8,5 C 41 % 1001,9 hPa 0,0 l/m 5,3 km/h (1 Bft) N-NO 22 -4,0 C 10,1 C 3,9 km/h (1 Bft)
13.02.2014 12:10 8,2 C 43 % 1001,9 hPa 0,0 l/m 4,2 km/h (1 Bft) N 360 -3,6 C 10,2 C 5,8 km/h (2 Bft)
13.02.2014 12:15 8,1 C 42 % 1001,9 hPa 0,0 l/m 4,5 km/h (1 Bft) NW 315 -4,0 C 9,9 C 6,4 km/h (2 Bft)
13.02.2014 12:20 7,9 C 41 % 1001,9 hPa 0,0 l/m 6,1 km/h (2 Bft) N-NW 337 -4,5 C 9,2 C 7,2 km/h (2 Bft)
13.02.2014 12:25 8,1 C 40 % 1001,4 hPa 0,0 l/m 7,2 km/h (2 Bft) N-NW 337 -4,7 C 8,2 C 9,0 km/h (2 Bft)
13.02.2014 12:30 7,9 C 40 % 1001,4 hPa 0,0 l/m 8,0 km/h (2 Bft) N-NW 337 -4,8 C 7,2 C 9,2 km/h (2 Bft)
13.02.2014 12:35 8,2 C 40 % 1001,4 hPa 0,0 l/m 7,7 km/h (2 Bft) N 360 -4,6 C 7,4 C 8,5 km/h (2 Bft)
13.02.2014 12:40 8,7 C 39 % 1001,4 hPa 0,0 l/m 7,1 km/h (2 Bft) N 360 -4,5 C 8,7 C 6,9 km/h (2 Bft)
13.02.2014 12:45 9,6 C 37 % 1000,2 hPa 0,0 l/m 7,2 km/h (2 Bft) N-NW 337 -4,4 C 9,2 C 11,7 km/h (2 Bft)
13.02.2014 12:50 10,2 C 35 % 1000,2 hPa 0,0 l/m 6,4 km/h (2 Bft) W 270 -4,6 C 10,9 C 2,6 km/h (1 Bft)
13.02.2014 12:55 10,7 C 33 % 1000,2 hPa 0,0 l/m 6,0 km/h (2 Bft) W-NW 292 -4,9 C 11,8 C 6,9 km/h (2 Bft)
13.02.2014 13:00 10,8 C 32 % 1000,2 hPa 0,0 l/m 5,8 km/h (2 Bft) W-SW 247 -5,2 C 12,1 C 6,3 km/h (2 Bft)
13.02.2014 13:05 10,2 C 34 % 1000,2 hPa 0,0 l/m 5,6 km/h (1 Bft) W-SW 247 -4,9 C 12,2 C 3,7 km/h (1 Bft)
13.02.2014 13:10 9,9 C 35 % 1000,2 hPa 0,0 l/m 3,2 km/h (1 Bft) N 360 -4,8 C 12,1 C 4,8 km/h (1 Bft)
13.02.2014 13:15 10,0 C 35 % 1000,2 hPa 0,0 l/m 2,9 km/h (1 Bft) N-NO 22 -4,7 C 12,1 C 0,0 km/h (0 Bft)
13.02.2014 13:20 10,2 C 35 % 1000,2 hPa 0,0 l/m 3,9 km/h (1 Bft) O-SO 112 -4,6 C 12,1 C 0,0 km/h (0 Bft)
13.02.2014 13:25 10,3 C 34 % 1000,1 hPa 0,0 l/m 4,0 km/h (1 Bft) O-SO 112 -4,9 C 12,0 C 4,5 km/h (1 Bft)
13.02.2014 13:30 9,8 C 37 % 1000,1 hPa 0,0 l/m 3,7 km/h (1 Bft) S 180 -4,2 C 11,8 C 5,1 km/h (1 Bft)
13.02.2014 13:35 9,7 C 38 % 1000,1 hPa 0,0 l/m 4,2 km/h (1 Bft) S-SO 157 -3,9 C 11,6 C 7,4 km/h (2 Bft)
13.02.2014 13:40 9,5 C 38 % 1000,1 hPa 0,0 l/m 5,0 km/h (1 Bft) S-SO 157 -4,1 C 11,2 C 7,1 km/h (2 Bft)
13.02.2014 13:45 9,3 C 38 % 999,8 hPa 0,0 l/m 3,9 km/h (1 Bft) O-SO 112 -4,3 C 11,1 C 0,0 km/h (0 Bft)
13.02.2014 13:50 9,1 C 39 % 999,8 hPa 0,0 l/m 1,4 km/h (1 Bft) S 180 -4,1 C 10,9 C 2,1 km/h (1 Bft)
13.02.2014 13:55 9,1 C 40 % 999,8 hPa 0,0 l/m 1,4 km/h (1 Bft) S-SW 202 -3,8 C 10,8 C 3,5 km/h (1 Bft)
13.02.2014 14:00 8,9 C 40 % 999,8 hPa 0,0 l/m 3,2 km/h (1 Bft) S-SW 202 -3,9 C 10,6 C 4,7 km/h (1 Bft)
13.02.2014 14:05 8,7 C 40 % 1000,2 hPa 0,0 l/m 4,5 km/h (1 Bft) S 180 -4,1 C 10,3 C 9,3 km/h (2 Bft)
13.02.2014 14:10 8,6 C 40 % 1000,2 hPa 0,0 l/m 7,7 km/h (2 Bft) S 180 -4,2 C 8,2 C 10,1 km/h (2 Bft)
13.02.2014 14:15 8,1 C 41 % 1000,2 hPa 0,0 l/m 10,1 km/h (2 Bft) S-SO 157 -4,3 C 5,7 C 21,1 km/h (4 Bft)
13.02.2014 14:20 7,8 C 43 % 1000,2 hPa 0,0 l/m 12,1 km/h (2 Bft) S 180 -4,0 C 3,3 C 11,1 km/h (2 Bft)
13.02.2014 14:23 7,7 C 44 % 1000,9 hPa 0,0 l/m 11,7 km/h (2 Bft) O 90 -3,8 C 3,3 C 9,2 km/h (2 Bft)
13.02.2014 14:25 7,7 C 44 % 1000,9 hPa 0,0 l/m 11,7 km/h (2 Bft) O 90 -3,8 C 3,3 C 9,2 km/h (2 Bft)
13.02.2014 14:30 7,7 C 44 % 1000,9 hPa 0,0 l/m 8,7 km/h (2 Bft) S 180 -3,8 C 5,8 C 8,2 km/h (2 Bft)
13.02.2014 14:35 7,6 C 45 % 1000,9 hPa 0,0 l/m 8,7 km/h (2 Bft) S 180 -3,6 C 5,6 C 7,7 km/h (2 Bft)
13.02.2014 14:40 7,6 C 46 % 1000,9 hPa 0,0 l/m 8,5 km/h (2 Bft) S-SO 157 -3,3 C 5,8 C 14,0 km/h (3 Bft)
13.02.2014 14:45 7,5 C 46 % 1001,4 hPa 0,0 l/m 8,7 km/h (2 Bft) S-SW 202 -3,4 C 5,6 C 7,2 km/h (2 Bft)
13.02.2014 14:50 7,8 C 46 % 1001,4 hPa 0,0 l/m 8,0 km/h (2 Bft) S-SO 157 -3,1 C 6,3 C 13,4 km/h (3 Bft)
13.02.2014 14:55 7,9 C 46 % 1001,4 hPa 0,0 l/m 6,8 km/h (2 Bft) O-SO 112 -3,0 C 7,6 C 6,1 km/h (2 Bft)
13.02.2014 15:00 8,2 C 47 % 1001,4 hPa 0,0 l/m 6,4 km/h (2 Bft) O-SO 112 -2,4 C 8,4 C 9,0 km/h (2 Bft)
13.02.2014 15:05 8,5 C 46 % 1000,8 hPa 0,0 l/m 5,8 km/h (2 Bft) S 180 -2,4 C 8,9 C 6,9 km/h (2 Bft)
13.02.2014 15:10 8,6 C 47 % 1000,8 hPa 0,0 l/m 5,5 km/h (1 Bft) S 180 -2,1 C 9,3 C 5,3 km/h (1 Bft)
13.02.2014 15:15 8,8 C 46 % 1000,8 hPa 0,0 l/m 5,3 km/h (1 Bft) S 180 -2,2 C 9,7 C 7,6 km/h (2 Bft)
13.02.2014 15:20 8,6 C 47 % 1000,8 hPa 0,0 l/m 4,8 km/h (1 Bft) SO 135 -2,1 C 9,9 C 4,8 km/h (1 Bft)
13.02.2014 15:25 8,3 C 48 % 1000,8 hPa 0,0 l/m 4,8 km/h (1 Bft) SO 135 -2,1 C 9,7 C 7,1 km/h (2 Bft)
13.02.2014 15:30 7,9 C 50 % 1000,8 hPa 0,0 l/m 6,6 km/h (2 Bft) S 180 -1,9 C 8,5 C 10,9 km/h (2 Bft)
13.02.2014 15:35 7,8 C 51 % 1000,8 hPa 0,0 l/m 7,6 km/h (2 Bft) S-SO 157 -1,7 C 7,3 C 9,2 km/h (2 Bft)
13.02.2014 15:40 7,6 C 52 % 1000,8 hPa 0,0 l/m 5,6 km/h (1 Bft) S 180 -1,6 C 8,4 C 3,5 km/h (1 Bft)
13.02.2014 15:45 7,3 C 53 % 1001,2 hPa 0,0 l/m 4,7 km/h (1 Bft) S 180 -1,6 C 8,4 C 6,9 km/h (2 Bft)
13.02.2014 15:50 7,2 C 54 % 1001,2 hPa 0,0 l/m 4,8 km/h (1 Bft) S-SO 157 -1,5 C 8,3 C 8,0 km/h (2 Bft)
13.02.2014 15:55 7,7 C 52 % 1001,2 hPa 0,0 l/m 6,6 km/h (2 Bft) O-SO 112 -1,5 C 7,7 C 10,0 km/h (2 Bft)
13.02.2014 16:00 7,9 C 53 % 1001,2 hPa 0,0 l/m 6,9 km/h (2 Bft) NO 45 -1,1 C 7,4 C 5,0 km/h (1 Bft)
13.02.2014 16:05 7,7 C 53 % 1000,8 hPa 0,0 l/m 6,4 km/h (2 Bft) SO 135 -1,3 C 7,9 C 13,4 km/h (3 Bft)
13.02.2014 16:10 7,8 C 56 % 1000,8 hPa 0,0 l/m 7,4 km/h (2 Bft) S-SW 202 -0,4 C 6,9 C 9,2 km/h (2 Bft)
13.02.2014 16:15 7,4 C 57 % 1000,8 hPa 0,0 l/m 8,4 km/h (2 Bft) O-SO 112 -0,5 C 5,7 C 15,6 km/h (3 Bft)
13.02.2014 16:20 7,7 C 55 % 1000,8 hPa 0,0 l/m 10,0 km/h (2 Bft) S-SW 202 -0,8 C 4,0 C 36,9 km/h (5 Bft)
13.02.2014 16:25 7,5 C 56 % 1001,1 hPa 0,0 l/m 9,7 km/h (2 Bft) O 90 -0,7 C 4,4 C 4,5 km/h (1 Bft)
13.02.2014 16:30 7,8 C 53 % 1001,1 hPa 0,0 l/m 9,2 km/h (2 Bft) O-SO 112 -1,2 C 4,7 C 23,5 km/h (4 Bft)
13.02.2014 16:35 7,8 C 51 % 1001,1 hPa 0,0 l/m 13,5 km/h (3 Bft) S 180 -1,7 C 1,5 C 20,4 km/h (4 Bft)
13.02.2014 16:40 7,6 C 52 % 1001,1 hPa 0,0 l/m 17,2 km/h (3 Bft) S-SO 157 -1,6 C -0,9 C 17,9 km/h (3 Bft)
13.02.2014 16:45 7,2 C 55 % 1000,9 hPa 0,0 l/m 18,5 km/h (3 Bft) S-SW 202 -1,2 C -1,9 C 24,8 km/h (4 Bft)
13.02.2014 16:50 6,8 C 57 % 1000,9 hPa 0,0 l/m 17,9 km/h (3 Bft) S 180 -1,1 C -2,7 C 37,5 km/h (5 Bft)
13.02.2014 16:55 6,7 C 58 % 1000,9 hPa 0,0 l/m 14,0 km/h (3 Bft) S-SW 202 -1,0 C -0,2 C 16,3 km/h (3 Bft)
13.02.2014 17:00 6,7 C 59 % 1000,9 hPa 0,0 l/m 10,3 km/h (2 Bft) S 180 -0,7 C 2,3 C 11,1 km/h (2 Bft)
13.02.2014 17:05 6,6 C 59 % 1000,9 hPa 0,0 l/m 8,2 km/h (2 Bft) W-SW 247 -0,8 C 4,3 C 6,9 km/h (2 Bft)
13.02.2014 17:10 6,5 C 60 % 1000,9 hPa 0,0 l/m 7,4 km/h (2 Bft) S-SW 202 -0,7 C 5,0 C 6,4 km/h (2 Bft)
13.02.2014 17:15 6,5 C 62 % 1000,9 hPa 0,0 l/m 7,2 km/h (2 Bft) S 180 -0,2 C 5,1 C 8,9 km/h (2 Bft)
13.02.2014 17:20 6,3 C 62 % 1000,9 hPa 0,0 l/m 6,3 km/h (2 Bft) O-SO 112 -0,4 C 6,1 C 7,4 km/h (2 Bft)
13.02.2014 17:25 6,2 C 63 % 1001,2 hPa 0,0 l/m 5,5 km/h (1 Bft) W-NW 292 -0,3 C 6,2 C 3,1 km/h (1 Bft)
13.02.2014 17:30 5,9 C 65 % 1001,2 hPa 0,0 l/m 4,3 km/h (1 Bft) S-SW 202 -0,2 C 6,3 C 8,2 km/h (2 Bft)
13.02.2014 17:35 6,1 C 63 % 1001,2 hPa 0,0 l/m 5,0 km/h (1 Bft) S 180 -0,4 C 6,1 C 9,7 km/h (2 Bft)
13.02.2014 17:40 6,1 C 63 % 1001,2 hPa 0,0 l/m 6,0 km/h (2 Bft) NO 45 -0,4 C 5,8 C 12,2 km/h (2 Bft)
13.02.2014 17:45 6,1 C 62 % 1001,2 hPa 0,0 l/m 6,8 km/h (2 Bft) S-SO 157 -0,6 C 5,4 C 6,3 km/h (2 Bft)
13.02.2014 17:50 6,4 C 59 % 1001,2 hPa 0,0 l/m 8,0 km/h (2 Bft) S-SO 157 -1,0 C 4,2 C 10,6 km/h (2 Bft)
13.02.2014 17:55 6,5 C 57 % 1001,2 hPa 0,0 l/m 7,7 km/h (2 Bft) S 180 -1,4 C 4,9 C 6,6 km/h (2 Bft)
13.02.2014 18:00 6,4 C 57 % 1001,2 hPa 0,0 l/m 8,5 km/h (2 Bft) S 180 -1,5 C 4,5 C 10,0 km/h (2 Bft)
13.02.2014 18:05 6,6 C 57 % 1001,9 hPa 0,0 l/m 8,4 km/h (2 Bft) S 180 -1,3 C 4,6 C 11,6 km/h (2 Bft)
13.02.2014 18:10 5,2 C 69 % 1001,9 hPa 0,0 l/m 15,9 km/h (3 Bft) S-SO 157 -0,0 C -2,8 C 40,6 km/h (6 Bft)
13.02.2014 18:15 3,9 C 78 % 1001,9 hPa 0,0 l/m 19,5 km/h (3 Bft) S 180 0,4 C -7,6 C 26,9 km/h (4 Bft)
13.02.2014 18:20 3,3 C 84 % 1001,9 hPa 0,0 l/m 18,3 km/h (3 Bft) S 180 0,9 C -9,2 C 24,3 km/h (4 Bft)
13.02.2014 18:25 3,2 C 86 % 1003,6 hPa 0,0 l/m 16,3 km/h (3 Bft) S 180 1,1 C -8,1 C 8,2 km/h (2 Bft)
13.02.2014 18:30 2,9 C 88 % 1003,6 hPa 0,0 l/m 14,0 km/h (3 Bft) S 180 1,1 C -6,8 C 10,6 km/h (2 Bft)
13.02.2014 18:35 2,5 C 88 % 1003,6 hPa 0,0 l/m 12,6 km/h (3 Bft) S 180 0,7 C -6,1 C 15,6 km/h (3 Bft)
13.02.2014 18:40 2,0 C 89 % 1003,6 hPa 0,0 l/m 13,0 km/h (3 Bft) S 180 0,4 C -7,2 C 14,5 km/h (3 Bft)
13.02.2014 18:45 1,7 C 90 % 1004,3 hPa 0,0 l/m 12,4 km/h (3 Bft) SO 135 0,2 C -7,1 C 15,1 km/h (3 Bft)
13.02.2014 18:50 1,4 C 91 % 1004,3 hPa 0,0 l/m 12,2 km/h (2 Bft) S-SO 157 0,1 C -7,6 C 12,1 km/h (2 Bft)
13.02.2014 18:55 1,2 C 91 % 1004,3 hPa 0,0 l/m 11,7 km/h (2 Bft) S 180 -0,1 C -7,3 C 18,8 km/h (3 Bft)
13.02.2014 19:00 1,0 C 91 % 1004,3 hPa 0,0 l/m 11,6 km/h (2 Bft) S-SO 157 -0,3 C -7,9 C 17,7 km/h (3 Bft)
13.02.2014 19:05 0,9 C 92 % 1004,1 hPa 0,0 l/m 10,8 km/h (2 Bft) S 180 -0,2 C -7,0 C 14,2 km/h (3 Bft)
13.02.2014 19:08 0,9 C 93 % 1002,9 hPa 0,0 l/m 9,7 km/h (2 Bft) S-SO 157 -0,1 C -5,7 C 14,5 km/h (3 Bft)
13.02.2014 19:10 0,9 C 93 % 1002,9 hPa 0,0 l/m 9,7 km/h (2 Bft) S-SO 157 -0,1 C -5,7 C 14,5 km/h (3 Bft)
13.02.2014 19:15 1,3 C 93 % 1002,9 hPa 0,0 l/m 11,3 km/h (2 Bft) S-SW 202 0,3 C -7,4 C 20,6 km/h (4 Bft)
13.02.2014 19:20 1,8 C 93 % 1002,9 hPa 0,0 l/m 14,2 km/h (3 Bft) SO 135 0,8 C -9,6 C 29,3 km/h (5 Bft)
13.02.2014 19:25 1,9 C 92 % 1002,9 hPa 0,0 l/m 16,6 km/h (3 Bft) S-SO 157 0,7 C -11,0 C 18,3 km/h (3 Bft)
13.02.2014 19:30 2,2 C 91 % 1002,4 hPa 0,0 l/m 17,2 km/h (3 Bft) S-SO 157 0,9 C -10,5 C 16,3 km/h (3 Bft)
13.02.2014 19:35 2,2 C 91 % 1002,4 hPa 0,0 l/m 16,9 km/h (3 Bft) O-SO 112 0,9 C -9,8 C 30,1 km/h (5 Bft)
13.02.2014 19:40 2,2 C 90 % 1002,4 hPa 0,0 l/m 17,5 km/h (3 Bft) S-SO 157 0,7 C -9,6 C 21,6 km/h (4 Bft)
13.02.2014 19:45 2,3 C 89 % 1002,4 hPa 0,0 l/m 16,7 km/h (3 Bft) S 180 0,7 C -8,8 C 17,7 km/h (3 Bft)
13.02.2014 19:50 2,3 C 88 % 1001,7 hPa 0,0 l/m 15,9 km/h (3 Bft) S 180 0,5 C -8,2 C 19,6 km/h (3 Bft)
13.02.2014 19:55 2,1 C 88 % 1001,7 hPa 0,0 l/m 14,6 km/h (3 Bft) SO 135 0,3 C -7,2 C 15,1 km/h (3 Bft)
13.02.2014 20:00 2,1 C 88 % 1001,7 hPa 0,0 l/m 12,4 km/h (3 Bft) S-SO 157 0,3 C -5,4 C 18,7 km/h (3 Bft)
13.02.2014 20:05 2,4 C 88 % 1001,7 hPa 0,0 l/m 12,4 km/h (3 Bft) S 180 0,6 C -5,3 C 21,6 km/h (4 Bft)
13.02.2014 20:10 2,4 C 87 % 1001,8 hPa 0,0 l/m 13,7 km/h (3 Bft) S-SO 157 0,5 C -6,0 C 14,0 km/h (3 Bft)
13.02.2014 20:15 2,6 C 87 % 1001,8 hPa 0,0 l/m 12,9 km/h (3 Bft) S 180 0,7 C -5,0 C 11,3 km/h (2 Bft)
13.02.2014 20:20 2,7 C 87 % 1001,8 hPa 0,0 l/m 11,9 km/h (2 Bft) S 180 0,8 C -3,9 C 11,9 km/h (2 Bft)
13.02.2014 20:25 2,8 C 86 % 1001,8 hPa 0,0 l/m 12,9 km/h (3 Bft) S 180 0,7 C -4,9 C 16,4 km/h (3 Bft)
13.02.2014 20:30 2,4 C 87 % 1003,1 hPa 0,0 l/m 18,2 km/h (3 Bft) S 180 0,5 C -9,9 C 24,8 km/h (4 Bft)
13.02.2014 20:35 2,2 C 88 % 1003,1 hPa 0,0 l/m 19,8 km/h (3 Bft) S 180 0,4 C -11,9 C 15,8 km/h (3 Bft)
13.02.2014 20:40 1,9 C 90 % 1003,1 hPa 0,0 l/m 16,3 km/h (3 Bft) O-SO 112 0,4 C -10,0 C 16,6 km/h (3 Bft)
13.02.2014 20:45 1,9 C 90 % 1003,1 hPa 0,0 l/m 15,8 km/h (3 Bft) S-SO 157 0,4 C -9,5 C 38,6 km/h (5 Bft)
13.02.2014 20:50 1,8 C 90 % 1003,3 hPa 0,0 l/m 18,2 km/h (3 Bft) S 180 0,3 C -11,4 C 48,4 km/h (6 Bft)
13.02.2014 20:55 1,8 C 90 % 1003,3 hPa 0,0 l/m 19,6 km/h (3 Bft) S 180 0,3 C -12,4 C 19,6 km/h (3 Bft)
13.02.2014 21:00 1,8 C 91 % 1003,3 hPa 0,0 l/m 17,4 km/h (3 Bft) S-SO 157 0,5 C -11,1 C 32,5 km/h (5 Bft)
13.02.2014 21:05 1,7 C 91 % 1003,3 hPa 0,0 l/m 16,4 km/h (3 Bft) S-SO 157 0,4 C -10,1 C 17,5 km/h (3 Bft)
13.02.2014 21:10 1,7 C 91 % 1003,6 hPa 0,0 l/m 17,4 km/h (3 Bft) S-SO 157 0,4 C -10,8 C 10,8 km/h (2 Bft)
13.02.2014 21:15 1,7 C 91 % 1003,6 hPa 0,0 l/m 16,4 km/h (3 Bft) S-SO 157 0,4 C -10,0 C 13,0 km/h (3 Bft)
13.02.2014 21:20 1,8 C 89 % 1003,6 hPa 0,0 l/m 16,9 km/h (3 Bft) S 180 0,2 C -9,9 C 24,8 km/h (4 Bft)
13.02.2014 21:25 1,8 C 88 % 1003,6 hPa 0,0 l/m 18,5 km/h (3 Bft) S-SW 202 0,0 C -10,9 C 27,2 km/h (4 Bft)
13.02.2014 21:30 1,8 C 87 % 1003,6 hPa 0,0 l/m 18,2 km/h (3 Bft) S-SW 202 -0,1 C -10,7 C 24,0 km/h (4 Bft)
13.02.2014 21:35 1,8 C 86 % 1003,6 hPa 0,0 l/m 17,9 km/h (3 Bft) S-SO 157 -0,3 C -10,4 C 31,9 km/h (5 Bft)
13.02.2014 21:40 1,9 C 85 % 1003,6 hPa 0,0 l/m 19,8 km/h (3 Bft) S-SO 157 -0,3 C -11,3 C 30,6 km/h (5 Bft)
13.02.2014 21:45 1,9 C 84 % 1003,6 hPa 0,0 l/m 19,2 km/h (3 Bft) S 180 -0,5 C -10,9 C 23,3 km/h (4 Bft)
13.02.2014 21:50 2,1 C 83 % 1004,0 hPa 0,0 l/m 18,5 km/h (3 Bft) S-SO 157 -0,5 C -10,3 C 21,7 km/h (4 Bft)
13.02.2014 21:55 2,2 C 82 % 1004,0 hPa 0,0 l/m 18,8 km/h (3 Bft) S-SW 202 -0,5 C -10,6 C 21,2 km/h (4 Bft)
13.02.2014 22:00 2,0 C 83 % 1004,0 hPa 0,0 l/m 16,6 km/h (3 Bft) S-SO 157 -0,6 C -8,9 C 12,4 km/h (3 Bft)
13.02.2014 22:05 2,2 C 82 % 1004,0 hPa 0,0 l/m 15,3 km/h (3 Bft) S 180 -0,5 C -7,9 C 18,5 km/h (3 Bft)
13.02.2014 22:10 2,3 C 81 % 1004,1 hPa 0,0 l/m 16,7 km/h (3 Bft) S-SO 157 -0,6 C -9,1 C 24,6 km/h (4 Bft)
13.02.2014 22:15 2,2 C 81 % 1004,1 hPa 0,0 l/m 16,7 km/h (3 Bft) S 180 -0,7 C -9,1 C 20,0 km/h (4 Bft)
13.02.2014 22:20 2,3 C 81 % 1004,1 hPa 0,0 l/m 16,3 km/h (3 Bft) S 180 -0,6 C -8,7 C 14,0 km/h (3 Bft)
13.02.2014 22:25 2,3 C 79 % 1004,1 hPa 0,0 l/m 15,6 km/h (3 Bft) S-SO 157 -1,0 C -8,2 C 21,1 km/h (4 Bft)
13.02.2014 22:30 2,3 C 80 % 1004,4 hPa 0,0 l/m 14,0 km/h (3 Bft) S 180 -0,8 C -6,8 C 10,8 km/h (2 Bft)
13.02.2014 22:35 2,3 C 81 % 1004,4 hPa 0,0 l/m 14,3 km/h (3 Bft) S 180 -0,6 C -7,1 C 36,2 km/h (5 Bft)
13.02.2014 22:40 2,4 C 80 % 1004,4 hPa 0,0 l/m 15,9 km/h (3 Bft) SO 135 -0,7 C -8,4 C 24,3 km/h (4 Bft)
13.02.2014 22:45 2,4 C 79 % 1004,4 hPa 0,0 l/m 16,3 km/h (3 Bft) S-SO 157 -0,9 C -8,7 C 22,2 km/h (4 Bft)
13.02.2014 22:50 2,2 C 79 % 1004,4 hPa 0,0 l/m 14,2 km/h (3 Bft) SO 135 -1,1 C -7,2 C 17,1 km/h (3 Bft)
13.02.2014 22:55 2,3 C 79 % 1004,4 hPa 0,0 l/m 13,7 km/h (3 Bft) O-SO 112 -1,0 C -7,0 C 25,7 km/h (4 Bft)
13.02.2014 23:00 2,3 C 79 % 1004,4 hPa 0,0 l/m 12,9 km/h (3 Bft) S 180 -1,0 C -6,2 C 12,1 km/h (2 Bft)
13.02.2014 23:05 2,3 C 81 % 1004,4 hPa 0,0 l/m 12,7 km/h (3 Bft) S-SO 157 -0,6 C -6,2 C 17,9 km/h (3 Bft)
13.02.2014 23:10 1,8 C 84 % 1005,2 hPa 0,0 l/m 14,0 km/h (3 Bft) S 180 -0,6 C -8,3 C 21,2 km/h (4 Bft)
13.02.2014 23:15 1,5 C 86 % 1005,2 hPa 0,0 l/m 14,8 km/h (3 Bft) SO 135 -0,6 C -9,8 C 15,1 km/h (3 Bft)
13.02.2014 23:20 1,1 C 88 % 1005,2 hPa 0,0 l/m 17,2 km/h (3 Bft) S-SO 157 -0,7 C -12,5 C 27,4 km/h (4 Bft)
13.02.2014 23:25 0,9 C 90 % 1005,2 hPa 0,0 l/m 16,7 km/h (3 Bft) N-NO 22 -0,6 C -12,4 C 12,1 km/h (2 Bft)
13.02.2014 23:30 0,9 C 91 % 1005,5 hPa 0,0 l/m 13,8 km/h (3 Bft) O-SO 112 -0,4 C -10,2 C 14,6 km/h (3 Bft)
13.02.2014 23:35 0,8 C 92 % 1005,5 hPa 0,0 l/m 12,7 km/h (3 Bft) SO 135 -0,3 C -9,2 C 7,6 km/h (2 Bft)
13.02.2014 23:40 0,8 C 92 % 1005,5 hPa 0,0 l/m 14,0 km/h (3 Bft) SO 135 -0,3 C -10,5 C 15,4 km/h (3 Bft)
13.02.2014 23:45 0,8 C 93 % 1005,5 hPa 0,0 l/m 13,7 km/h (3 Bft) SO 135 -0,2 C -10,2 C 17,4 km/h (3 Bft)
13.02.2014 23:50 0,8 C 93 % 1005,9 hPa 0,0 l/m 12,4 km/h (3 Bft) S-SW 202 -0,2 C -9,0 C 10,5 km/h (2 Bft)
13.02.2014 23:55 0,8 C 93 % 1005,9 hPa 0,0 l/m 11,4 km/h (2 Bft) S 180 -0,2 C -7,7 C 11,9 km/h (2 Bft)
_ Min-Zeit 00:15 13:00 14:00 - 10:00 - - 03:35 23:20 13:45
Minimum _ -5,2 C 32 % 999,8 hPa - 0,0 km/h (0 Bft) - - -8,7 C -12,5 C 0,0 km/h (0 Bft)
_ Max-Zeit 13:00 23:55 05:20 23:55 21:40 - - 18:30 10:35 20:50
Maximum _ 10,8 C 93 % 1009,1 hPa 0,0 l/m 19,8 km/h
S-SO (3 Bft)
- - 1,1 C 13,1 C 48,4 km/h
S (6 Bft)
Durchschnitt _ 3,2 C 62 % 1004,5 hPa #0,0 l/m 7,5 km/h (2 Bft) S - -4,0 C 0,3 C 9,8 km/h (2 Bft)